Location: Bronschhofen
(47.4788°N, 9.0353°E)
Time: 18:43:23
(UTC+00:00)

Cosmos 962 Rocket - Pass Details

Date: 20 May 2022
Orbit: 950 x 1000 km, 82.9° (Epoch: 05 July)

Event Time Altitude Azimuth Distance (km) Brightness Sun altitude
Rises 02:52:58 0° 350° (N) 3,658 8.0 -7.4°
Reaches altitude 10° 02:55:29 10° 350° (N) 2,702 7.3 -7.1°
Maximum altitude 03:01:40 83° 263° (W) 966 4.5 -6.3°
Drops below altitude 10° 03:07:46 10° 177° (S) 2,667 6.5 -5.5°
Sets 03:10:14 0° 176° (S) 3,608 7.1 -5.2°
